Location: *
(37.5724°S, 58.0067°E)
Time: 03:21:08
(UTC+00:00)

CZ-4 R/B - Pass Details

Date: 22 January 2021
Orbit: 531 x 598 km, 97.7° (Epoch: 07 March)

Event Time Altitude Azimuth Distance (km) Brightness Sun altitude
Rises 15:51:36 0° 173° (S) 2,873 5.3 -5.0°
Reaches altitude 10° 15:53:49 10° 177° (S) 1,967 4.5 -5.4°
Maximum altitude 15:58:00 56° 254° (WSW) 730 2.4 -6.1°
Drops below altitude 10° 16:02:09 10° 332° (NNW) 1,944 4.1 -6.9°
Sets 16:04:20 0° 336° (NNW) 2,836 4.9 -7.2°
